RADUGA 31 [-]

Last updated on July 6, 2021, 3:35 p.m. UTC

1 23010U 94012A   21186.45006493 -.00000256  00000-0  00000+0 0  9994
2 23010  14.8011   2.3390 0007072  69.1050 106.6333  1.00218056100216
UTC
Height (km)
Latitude
Longitude
Inclination
Orbital Period
UTC large
Height (km)
Speed (km/s)
/
Latitude / Longitude
Inclination (degrees)
Orbital Period (minutes)
Azimuth
Elevation
Range (km)
Doppler Factor
iOS Compass Heading
iOS Angle